Madison, MN

5:37 AM CST on December 11, 2019 (GMT -0600)
Madison-Lac Qui Parle County

Weather History for KDXX - November, 2019

Change the Weather History Date:

Friday, November 22, 2019

  Actual Average (KAQP) Record (KAQP)
Temperature  
Mean Temperature 28 °F -  
Max Temperature 42 °F 33 °F 60 °F (2006)
Min Temperature 14 °F 17 °F -7 °F (1996)
Degree Days  
Heating Degree Days 37    
Moisture  
Dew Point 20 °F    
Average Humidity 76    
Maximum Humidity 93    
Minimum Humidity 46    
Precipitation  
Precipitation 0.00 in - - ()
Sea Level Pressure  
Sea Level Pressure 30.10 in    
Wind  
Wind Speed 6 mph (SSW)    
Max Wind Speed 13 mph    
Max Gust Speed 16 mph    
Visibility 10 miles    
Events      
Averages and records for this station are not official NWS values.
T = Trace of Precipitation, MM = Missing Value Source: NWS Daily Summary

Daily Weather History Graph

Daily Weather History Graph

Search for Another Location

Airport or City:

Astronomy

Nov. 22, 2019 Rise Set
Actual Time 7:31 AM CST 4:49 PM CST
Civil Twilight 6:59 AM CST 5:22 PM CST
Nautical Twilight 6:22 AM CST 5:58 PM CST
Astronomical Twilight 5:48 AM CST 6:33 PM CST
Moon 2:22 AM CST (11/22) 3:05 PM CST (11/22)
Length of Visible Light 10h 23m
Length of Day
9h 18m
Waning Crescent, 19% of the Moon is Illuminated
Nov 22
Waning Crescent
Nov 26
New
Dec 4
First Quarter
Dec 11
Full
Dec 18
Last Quarter

Hourly Weather History & Observations

Time (CST) Temp. Windchill Dew Point Humidity Pressure Visibility Wind Dir Wind Speed Gust Speed Precip Events Conditions
12:15 AM 23.0 °F 13.9 °F 17.6 °F 80% 30.28 in 10.0 mi NNW 8.1 mph - N/A   Overcast
12:16 AM 23.0 °F 13.9 °F 17.6 °F 80% 30.28 in 10.0 mi NNW 8.1 mph - N/A   Overcast
12:35 AM 21.2 °F 13.6 °F 17.6 °F 86% 30.27 in 10.0 mi NNW 5.8 mph - N/A   Overcast
12:55 AM 19.4 °F 12.8 °F 17.6 °F 93% 30.27 in 10.0 mi NW 4.6 mph - N/A   Scattered Clouds
1:35 AM 19.4 °F - 15.8 °F 86% 30.26 in 10.0 mi Calm Calm - N/A   Clear
1:55 AM 17.6 °F - 15.8 °F 93% 30.25 in 10.0 mi Calm Calm - N/A   Clear
1:56 AM 17.6 °F - 15.8 °F 93% 30.25 in 10.0 mi Calm Calm - N/A   Clear
2:15 AM 17.6 °F 12.3 °F 15.8 °F 93% 30.26 in 10.0 mi West 3.5 mph - N/A   Clear
2:55 AM 15.8 °F - 14.0 °F 93% 30.26 in 10.0 mi Calm Calm - N/A   Clear
2:56 AM 15.8 °F - 14.0 °F 93% 30.26 in 10.0 mi Calm Calm - N/A   Clear
3:15 AM 17.6 °F - 15.8 °F 93% 30.25 in 10.0 mi Calm Calm - N/A   Clear
3:35 AM 17.6 °F - 15.8 °F 93% 30.24 in 10.0 mi Calm Calm - N/A   Clear
4:15 AM 17.6 °F - 15.8 °F 93% 30.24 in 10.0 mi Calm Calm - N/A   Clear
4:35 AM 15.8 °F 10.2 °F 14.0 °F 93% 30.24 in 10.0 mi WSW 3.5 mph - N/A   Clear
4:36 AM 15.8 °F - 14.0 °F 93% 30.24 in 10.0 mi Calm Calm - N/A   Clear
4:55 AM 17.6 °F - 14.0 °F 86% 30.24 in 10.0 mi Calm Calm - N/A   Clear
4:56 AM 17.6 °F - 14.0 °F 86% 30.24 in 10.0 mi Calm Calm - N/A   Clear
5:15 AM 15.8 °F 10.2 °F 12.2 °F 86% 30.24 in 10.0 mi SW 3.5 mph - N/A   Clear
5:35 AM 15.8 °F 10.2 °F 12.2 °F 86% 30.23 in 10.0 mi SSW 3.5 mph - N/A   Clear
5:55 AM 15.8 °F 10.2 °F 12.2 °F 86% 30.22 in 10.0 mi SSW 3.5 mph - N/A   Clear
6:15 AM 14.0 °F 6.5 °F 10.4 °F 86% 30.22 in 10.0 mi SSW 4.6 mph - N/A   Clear
6:16 AM 14.0 °F 8.2 °F 10.4 °F 86% 30.22 in 10.0 mi SSW 3.5 mph - N/A   Clear
6:35 AM 14.0 °F 8.2 °F 10.4 °F 86% 30.22 in 10.0 mi SSW 3.5 mph - N/A   Clear
6:36 AM 14.0 °F 6.5 °F 10.4 °F 86% 30.22 in 10.0 mi SSW 4.6 mph - N/A   Clear
6:55 AM 15.8 °F 7.2 °F 12.2 °F 86% 30.22 in 10.0 mi SSW 5.8 mph - N/A   Clear
6:56 AM 15.8 °F 7.2 °F 12.2 °F 86% 30.22 in 10.0 mi SSW 5.8 mph - N/A   Clear
7:15 AM 15.8 °F - 12.2 °F 86% 30.22 in 10.0 mi Calm Calm - N/A   Clear
7:35 AM 15.8 °F 10.2 °F 10.4 °F 79% 30.22 in 10.0 mi SSW 3.5 mph - N/A   Clear
7:55 AM 15.8 °F 8.6 °F 12.2 °F 86% 30.22 in 10.0 mi South 4.6 mph - N/A   Clear
8:15 AM 17.6 °F 9.3 °F 14.0 °F 86% 30.21 in 10.0 mi SSW 5.8 mph - N/A   Clear
8:55 AM 21.2 °F 13.6 °F 17.6 °F 86% 30.20 in 10.0 mi SW 5.8 mph - N/A   Clear
9:15 AM 24.8 °F 19.1 °F 17.6 °F 74% 30.20 in 10.0 mi SSW 4.6 mph - N/A   Clear
9:16 AM 24.8 °F 17.9 °F 17.6 °F 74% 30.20 in 10.0 mi SSW 5.8 mph - N/A   Clear
9:35 AM 26.6 °F 19.1 °F 19.4 °F 74% 30.19 in 10.0 mi SSW 6.9 mph - N/A   Clear
9:55 AM 26.6 °F 20.0 °F 19.4 °F 74% 30.20 in 10.0 mi SSW 5.8 mph - N/A   Clear
10:15 AM 28.4 °F 22.2 °F 21.2 °F 74% 30.19 in 10.0 mi South 5.8 mph - N/A   Clear
10:35 AM 30.2 °F 23.4 °F 21.2 °F 69% 30.18 in 10.0 mi SSW 6.9 mph - N/A   Clear
10:55 AM 33.8 °F 29.6 °F 21.2 °F 60% 30.17 in 10.0 mi SSW 4.6 mph - N/A   Clear
11:15 AM 33.8 °F 27.0 °F 21.2 °F 60% 30.16 in 10.0 mi SSW 8.1 mph - N/A   Clear
11:16 AM 33.8 °F 27.0 °F 19.4 °F 56% 30.16 in 10.0 mi SSW 8.1 mph - N/A   Clear
11:55 AM 37.4 °F 31.4 °F 21.2 °F 52% 30.14 in 10.0 mi South 8.1 mph - N/A   Clear
12:15 PM 37.4 °F 30.3 °F 19.4 °F 48% 30.12 in 10.0 mi SSW 10.4 mph - N/A   Clear
12:35 PM 37.4 °F 30.8 °F 21.2 °F 52% 30.11 in 10.0 mi SSW 9.2 mph - N/A   Clear
12:55 PM 37.4 °F 30.3 °F 21.2 °F 52% 30.10 in 10.0 mi SSW 10.4 mph - N/A   Clear
1:15 PM 39.2 °F 32.5 °F 24.8 °F 56% 30.09 in 10.0 mi SSW 10.4 mph - N/A   Clear
1:35 PM 39.2 °F 33.0 °F 24.8 °F 56% 30.08 in 10.0 mi South 9.2 mph - N/A   Clear
1:55 PM 42.8 °F 36.6 °F 23.0 °F 46% 30.07 in 10.0 mi SW 11.5 mph - N/A   Clear
2:15 PM 42.8 °F 36.2 °F 24.8 °F 49% 30.07 in 10.0 mi SW 12.7 mph - N/A   Clear
2:35 PM 42.8 °F 36.2 °F 24.8 °F 49% 30.06 in 10.0 mi SSW 12.7 mph - N/A   Clear
2:55 PM 42.8 °F 37.0 °F 23.0 °F 46% 30.06 in 10.0 mi SW 10.4 mph 16.1 mph N/A   Clear
2:56 PM 42.8 °F 36.6 °F 23.0 °F 46% 30.06 in 10.0 mi SW 11.5 mph 16.1 mph N/A   Clear
3:15 PM 41.0 °F 35.2 °F 23.0 °F 49% 30.05 in 10.0 mi SW 9.2 mph - N/A   Clear
3:35 PM 41.0 °F 34.7 °F 24.8 °F 53% 30.04 in 10.0 mi SSW 10.4 mph - N/A   Clear
3:55 PM 39.2 °F 33.0 °F 24.8 °F 56% 30.03 in 10.0 mi SSW 9.2 mph - N/A   Clear
4:15 PM 39.2 °F 33.6 °F 24.8 °F 56% 30.02 in 10.0 mi South 8.1 mph - N/A   Clear
4:35 PM 35.6 °F 29.2 °F 24.8 °F 65% 30.02 in 10.0 mi South 8.1 mph - N/A   Clear
4:36 PM 35.6 °F 29.2 °F 24.8 °F 65% 30.02 in 10.0 mi South 8.1 mph - N/A   Clear
4:55 PM 33.8 °F 27.0 °F 24.8 °F 70% 30.01 in 10.0 mi South 8.1 mph - N/A   Clear
5:15 PM 32.0 °F 25.6 °F 24.8 °F 75% 30.00 in 10.0 mi South 6.9 mph - N/A   Clear
5:16 PM 32.0 °F 25.6 °F 24.8 °F 75% 30.00 in 10.0 mi South 6.9 mph - N/A   Clear
5:36 PM 30.2 °F 21.9 °F 24.8 °F 80% 29.99 in 10.0 mi South 9.2 mph - N/A   Clear
5:55 PM 30.2 °F 22.6 °F 24.8 °F 80% 29.99 in 10.0 mi South 8.1 mph - N/A   Clear
6:15 PM 30.2 °F 22.6 °F 24.8 °F 80% 29.98 in 10.0 mi South 8.1 mph - N/A   Clear
6:16 PM 30.2 °F 22.6 °F 24.8 °F 80% 29.98 in 10.0 mi South 8.1 mph - N/A   Clear
6:35 PM 30.2 °F 21.9 °F 24.8 °F 80% 29.97 in 10.0 mi South 9.2 mph - N/A   Clear
6:55 PM 30.2 °F 20.8 °F 24.8 °F 80% 29.95 in 10.0 mi South 11.5 mph - N/A   Clear
7:15 PM 30.2 °F 20.8 °F 24.8 °F 80% 29.94 in 10.0 mi South 11.5 mph - N/A   Clear
7:35 PM 30.2 °F 20.8 °F 24.8 °F 80% 29.93 in 10.0 mi South 11.5 mph - N/A   Clear
8:15 PM 28.4 °F 20.4 °F 24.8 °F 86% 29.92 in 10.0 mi SSE 8.1 mph - N/A   Clear
8:16 PM 28.4 °F 20.4 °F 24.8 °F 86% 29.92 in 10.0 mi SSE 8.1 mph - N/A   Clear
8:35 PM 28.4 °F 19.7 °F 24.8 °F 86% 29.91 in 10.0 mi South 9.2 mph - N/A   Clear
8:55 PM 28.4 °F 19.1 °F 24.8 °F 86% 29.91 in 10.0 mi SSE 10.4 mph - N/A   Clear
9:35 PM 26.6 °F 18.2 °F 23.0 °F 86% 29.90 in 10.0 mi SSE 8.1 mph - N/A   Clear
9:55 PM 26.6 °F 16.8 °F 23.0 °F 86% 29.89 in 10.0 mi SSE 10.4 mph - N/A   Clear
9:56 PM 26.6 °F 16.8 °F 23.0 °F 86% 29.88 in 10.0 mi SSE 10.4 mph - N/A   Clear
10:15 PM 28.4 °F 18.5 °F 24.8 °F 86% 29.86 in 10.0 mi SSE 11.5 mph - N/A   Clear
10:35 PM 28.4 °F 19.1 °F 23.0 °F 80% 29.83 in 10.0 mi SSE 10.4 mph - N/A   Clear
11:15 PM 33.8 °F 27.0 °F 23.0 °F 65% 29.83 in 10.0 mi South 8.1 mph - N/A   Clear
11:16 PM 32.0 °F 24.2 °F 23.0 °F 69% 29.82 in 10.0 mi South 9.2 mph - N/A   Clear
11:35 PM 33.8 °F 28.6 °F 23.0 °F 65% 29.82 in 10.0 mi SSE 5.8 mph - N/A   Clear
11:55 PM 32.0 °F 23.6 °F 23.0 °F 69% 29.81 in 10.0 mi SSW 10.4 mph - N/A   Clear